User: anonymous   Login
Location: Unspecified
(0.0000°N, 0.0000°E)
Time: 14:56:38
(UTC+02:00)
Language:

Centaur D-1AR AC-41 - Orbit

View from above orbital plane
View from above orbital plane
View from above satellite
View from above satellite

Ground track
Ground track

The orbit data is extracted from the following two-line orbital elements,

1 10976U 78068B   15088.42460623 -.00000017  00000-0  34199-3 0  9999
2 10976 021.2367 121.8725 7190140 121.6283 002.4615 02.22295776298219
Epoch (UTC): 29 March 2015 10:11:25
Eccentricity: 0.7190140
inclination: 21.2367°
perigee height: 590 km
apogee height: 36252 km
right ascension of ascending node: 121.8725°
argument of perigee: 121.6283°
revolutions per day: 2.22295776
mean anomaly at epoch: 2.4615°
orbit number at epoch: 29821

The dashed part of the orbit path shows where the satellite is in the earth's shadow,  

DLR